This is the latest recevied weather packets stored in our database for station/object SR3WXA. If no packets are shown the sender has not sent any weather packets the latest 10 day(s).
| Time | Temp. | Humidity | Pressure | Rain* | Wind** | Luminosity | Snow |
|---|---|---|---|---|---|---|---|
| 1777373911 | 11.67° C | 32% | 1027.5 hPa | 0 mm | - | 742 W/m² | - |
| 1777373611 | 11.67° C | 32% | 1027.5 hPa | 0 mm | - | 735 W/m² | - |
| 1777373349 | 11.67° C | 34% | 1027.5 hPa | 0 mm | - | 726 W/m² | - |
| 1777373311 | 11.67° C | 34% | 1027.5 hPa | 0 mm | - | 726 W/m² | - |
| 1777373011 | 11.11° C | 36% | 1027.5 hPa | 0 mm | - | 722 W/m² | - |
| 1777372711 | 11.11° C | 35% | 1027.5 hPa | 0 mm | - | 717 W/m² | - |
| 1777372262 | 11.11° C | 36% | 1027.7 hPa | 0 mm | - | 710 W/m² | - |
| 1777372225 | 11.11° C | 36% | 1027.7 hPa | 0 mm | - | 710 W/m² | - |
| 1777371925 | 11.11° C | 35% | 1027.7 hPa | 0 mm | - | 710 W/m² | - |
| 1777371658 | 11.67° C | 36% | 1027.6 hPa | 0 mm | - | 715 W/m² | - |
| 1777371625 | 11.67° C | 36% | 1027.6 hPa | 0 mm | - | 715 W/m² | - |
| 1777371367 | 11.11° C | 35% | 1027.7 hPa | 0 mm | - | 717 W/m² | - |
| 1777371325 | 11.11° C | 35% | 1027.7 hPa | 0 mm | - | 717 W/m² | - |
| 1777371025 | 11.11° C | 35% | 1027.7 hPa | 0 mm | - | 714 W/m² | - |
| 1777370725 | 11.11° C | 34% | 1027.7 hPa | 0 mm | - | 717 W/m² | - |
| 1777370425 | 11.11° C | 34% | 1027.8 hPa | 0 mm | - | 708 W/m² | - |
| 1777369890 | 10.56° C | 36% | 1027.8 hPa | 0 mm | - | 701 W/m² | - |
| 1777369590 | 10.56° C | 36% | 1027.9 hPa | 0 mm | - | 698 W/m² | - |
| 1777369290 | 10.56° C | 36% | 1027.9 hPa | 0 mm | - | 693 W/m² | - |
| 1777369021 | 10° C | 36% | 1027.9 hPa | 0 mm | - | 693 W/m² | - |
| 1777368990 | 10° C | 36% | 1027.9 hPa | 0 mm | - | 693 W/m² | - |
| 1777368777 | 10° C | 38% | 1027.9 hPa | 0 mm | - | 686 W/m² | - |
| 1777368690 | 10° C | 38% | 1027.9 hPa | 0 mm | - | 686 W/m² | - |
| 1777368101 | 10° C | 40% | 1028 hPa | 0 mm | - | 677 W/m² | - |
| 1777367801 | 10° C | 40% | 1027.9 hPa | 0 mm | - | 673 W/m² | - |
* Rain latest hour (hover to see other rain measurements)
** Current wind speed in m/s (hover to see current wind gust speed)